Wind_Speed
38 40 41 42 43 44 45 46 46 47 48 49 50 51 52 53 55 56 57 59 60 61 62 64 65 66 67 69 70 71 73 75 77 76 77 78 78 78 77 76 75 74 72
40 41 42 43 44 45 46 47 47 48 49 50 51 52 54 55 56 58 59 60 61 62 63 64 66 67 69 70 72 73 75 76 78 78 77 77 77 76 74 72 70 68 67
42 43 44 45 46 46 47 48 49 50 51 52 53 54 55 57 58 60 60 61 62 63 64 66 67 69 70 72 74 75 76 78 79 79 77 75 73 72 70 67 65 63 62
44 45 45 46 47 48 49 50 51 52 53 54 55 56 57 58 60 61 61 62 63 65 66 67 69 71 73 74 75 77 78 78 77 77 75 72 69 67 65 63 60 59 58
45 46 47 48 49 50 51 52 53 54 54 56 57 58 59 60 61 62 62 64 65 66 67 69 71 73 74 76 77 77 76 75 74 72 70 67 64 62 61 59 57 55 54
46 47 48 49 50 51 52 53 54 55 56 57 58 59 60 61 62 63 65 66 67 68 70 71 73 74 75 75 76 75 74 73 71 69 66 63 60 58 57 55 54 52 50
47 48 49 51 52 53 54 55 55 56 57 58 59 60 61 63 64 66 67 69 70 71 72 73 73 73 74 74 73 72 70 69 68 66 63 59 57 55 53 52 51 49 47
48 50 51 52 53 54 54 55 56 57 59 60 61 62 63 65 67 68 69 71 72 72 73 74 73 73 73 73 71 69 67 66 64 63 60 56 53 51 50 49 47 46 44
50 51 52 53 54 54 55 56 58 59 60 61 62 64 66 67 69 70 72 73 73 73 73 73 73 73 72 71 70 67 64 61 60 58 55 52 50 49 48 46 45 44 42
51 51 53 54 55 56 57 58 59 61 62 63 64 66 68 69 71 73 74 74 74 73 73 72 72 72 70 69 67 64 60 57 54 52 49 48 47 45 44 43 42 41 40
51 52 54 55 56 57 58 59 61 62 64 65 67 68 70 72 74 74 75 75 75 74 72 71 70 69 67 65 62 60 56 53 49 47 45 43 42 41 40 40 40 40 38
52 53 54 55 57 58 60 61 63 65 66 68 69 70 72 74 74 75 75 75 75 74 72 70 68 66 63 60 57 54 52 49 46 43 41 39 38 37 37 37 38 37 36
53 54 55 57 58 60 62 63 65 67 69 71 72 73 74 74 74 75 75 75 74 73 70 68 65 62 59 56 53 50 48 45 43 40 37 36 35 34 34 35 35 34 33
54 55 57 59 60 62 64 66 68 70 72 74 75 76 75 74 75 75 74 73 72 70 67 64 61 58 55 52 49 47 45 43 40 37 35 34 34 33 33 32 32 31 30
56 58 59 61 63 64 66 68 71 73 76 77 77 77 77 75 75 75 73 71 69 66 63 60 56 53 50 48 45 43 42 39 37 36 35 33 33 32 31 31 30 29 29
58 60 61 63 65 67 69 71 73 75 77 78 78 79 78 77 75 73 71 69 66 63 60 56 52 49 46 44 42 40 38 36 35 35 34 33 32 30 30 30 29 28 27
60 62 64 66 68 70 73 75 76 76 76 77 78 78 77 76 73 71 68 66 63 59 55 51 48 45 43 41 39 37 35 34 34 33 32 31 30 29 29 28 28 27 27
63 65 67 69 71 74 76 78 79 79 77 76 76 76 75 73 71 68 65 62 58 54 51 48 45 43 41 39 37 35 34 33 33 32 31 30 29 29 28 27 27 27 26
66 68 71 73 75 77 79 80 80 80 79 77 75 73 72 70 67 64 61 58 54 50 47 44 42 41 39 38 36 34 33 32 31 31 30 29 29 28 27 27 27 26 26
69 72 74 76 77 79 80 81 80 79 78 77 74 71 68 65 61 58 55 53 50 47 44 42 40 39 38 36 34 32 31 31 30 30 29 28 28 27 27 26 26 26 26
72 74 76 78 80 81 81 81 80 78 76 74 70 66 63 60 57 53 51 48 45 43 41 39 37 36 35 33 32 30 30 29 29 28 28 27 27 27 27 26 26 26 26
76 77 79 80 81 82 81 79 78 76 73 70 65 61 59 56 53 49 47 44 42 40 38 37 35 34 33 31 30 29 28 28 28 28 27 27 27 27 26 26 26 26 26
78 80 81 81 82 80 78 76 75 72 69 65 61 57 54 51 48 46 43 40 38 37 36 35 33 32 30 29 28 28 27 27 27 27 27 27 27 27 26 26 26 26 26
80 81 81 81 79 76 74 72 69 66 63 59 56 52 49 46 44 42 39 37 36 35 34 32 31 30 29 28 27 27 27 27 27 27 27 27 27 27 26 27 27 27 27
80 80 79 77 75 72 69 66 63 60 57 53 50 47 44 42 40 38 36 35 33 32 31 30 29 28 27 27 27 27 27 27 27 27 27 27 27 27 27 27 28 28 27
78 77 75 72 70 67 64 61 58 54 51 47 45 42 40 38 36 35 33 32 31 30 29 28 28 28 27 27 27 27 27 27 27 27 27 27 27 28 28 29 29 29 29
Wind_Direction
290 291 292 292 293 293 293 293 293 293 293 293 293 293 293 293 293 293 293 294 294 294 294 294 294 294 295 295 295 294 294 294 293 293 292 292 291 289 288 287 285 283 282
291 292 293 293 294 294 294 294 294 294 294 294 294 294 294 294 294 294 295 295 295 295 296 296 296 296 296 296 296 296 296 295 295 294 293 292 291 290 288 287 285 283 282
292 293 293 294 295 295 295 295 295 295 295 295 295 295 295 295 296 296 296 297 297 297 297 297 297 297 298 298 298 298 297 297 296 295 294 293 292 290 288 286 284 283 281
292 293 294 295 295 295 296 296 296 296 296 296 297 297 297 297 297 298 298 298 298 299 299 299 299 299 299 299 299 299 298 297 297 296 295 293 292 290 287 285 284 282 281
293 294 295 295 296 296 296 297 297 297 297 297 298 298 299 299 299 299 299 300 300 300 300 301 301 301 301 301 300 300 299 298 297 296 294 293 291 288 286 284 283 281 279
293 294 295 296 296 296 297 298 298 298 298 299 300 300 300 300 300 300 301 301 302 302 302 302 302 302 302 302 301 301 300 298 297 295 294 292 290 287 285 284 282 281 278
294 295 295 296 296 297 298 298 298 299 299 300 301 301 301 301 301 302 302 303 303 303 304 304 304 303 303 302 301 301 299 298 297 295 294 292 289 287 284 282 281 280 279
295 295 296 296 297 297 298 298 299 299 300 301 301 302 302 302 302 303 303 304 305 305 305 305 304 304 303 302 301 300 299 297 295 294 293 291 288 286 284 283 282 280 279
295 296 296 297 297 298 298 299 299 300 301 301 302 302 303 303 303 304 304 305 305 305 305 305 304 304 302 301 300 299 298 296 294 293 291 290 287 285 283 282 282 281 279
295 296 297 298 298 298 299 299 300 301 301 302 303 303 304 304 304 305 305 305 305 305 305 304 304 303 302 301 300 299 297 295 293 292 290 288 286 284 282 282 283 282 281
295 296 297 298 299 299 300 300 301 301 302 303 303 304 305 305 305 306 305 305 305 305 305 304 303 302 301 300 299 298 296 294 292 291 289 287 285 282 281 282 283 283 282
296 297 298 299 299 300 301 301 302 302 303 303 304 305 305 306 306 305 305 305 305 305 305 304 303 302 301 300 298 296 295 293 292 291 289 287 284 282 281 282 283 283 282
297 298 298 299 300 301 302 302 303 303 304 304 305 305 306 306 305 305 305 305 305 305 305 304 303 302 300 299 297 295 294 292 291 289 288 287 285 283 283 283 283 282 281
298 299 299 300 301 302 302 303 304 304 305 305 306 306 306 306 305 305 304 305 305 304 303 303 302 301 299 297 295 294 292 291 289 287 287 286 285 284 284 284 283 282 280
299 300 301 301 302 303 303 304 305 305 306 306 306 306 306 306 305 305 305 304 304 303 302 301 300 298 297 295 294 292 291 288 286 286 286 286 285 284 283 283 283 281 279
301 301 302 302 303 303 304 304 305 306 306 307 306 306 306 306 306 305 305 305 304 303 302 301 299 298 296 294 293 291 288 286 285 286 286 285 284 283 283 283 282 281 279
301 302 303 303 304 304 304 305 305 306 306 306 306 306 306 306 306 305 304 304 304 302 301 299 299 297 296 294 292 289 286 284 284 285 285 284 283 282 282 282 281 280 279
302 303 303 304 304 305 305 306 306 306 306 306 306 306 306 305 305 304 304 303 302 301 299 298 297 297 295 293 291 288 286 284 284 284 284 283 282 281 281 281 280 279 279
303 303 304 304 305 305 306 306 306 306 306 306 306 306 305 304 304 304 303 302 301 300 298 297 296 295 294 292 290 287 286 284 283 283 283 282 282 281 281 281 280 279 278
303 304 304 305 306 306 306 306 306 306 306 306 306 306 304 303 303 302 301 300 300 298 297 296 294 294 293 291 288 287 286 284 283 282 282 281 280 280 280 280 280 279 278
304 304 305 306 306 307 307 306 306 306 306 306 306 305 304 304 303 302 300 299 298 297 296 294 293 294 292 290 287 286 285 284 283 282 281 280 280 280 279 279 279 278 278
304 305 306 306 306 307 307 307 306 306 306 305 305 304 304 303 302 301 300 299 297 296 295 294 293 293 291 289 286 285 285 284 283 281 280 280 280 279 279 278 278 277 277
305 306 306 307 307 307 307 307 306 306 305 305 304 303 302 302 301 300 299 297 296 296 295 294 293 292 290 287 286 284 284 284 283 281 280 280 280 279 278 278 278 277 276
306 306 307 307 307 307 307 307 307 306 306 305 304 302 301 300 300 299 297 296 295 295 294 293 293 292 289 287 286 285 284 284 283 282 280 280 279 278 278 279 278 277 276
306 307 307 307 307 307 308 308 308 307 306 305 304 303 301 299 299 298 297 295 293 293 293 292 292 291 289 287 286 285 285 284 284 282 281 280 279 277 277 278 278 277 276
307 307 307 307 308 308 308 308 308 307 306 305 304 303 301 300 299 298 297 294 293 292 291 291 291 290 288 287 286 286 285 285 284 283 283 282 281 279 278 278 277 276 276
Height
5732 5728 5725 5721 5718 5714 5710 5706 5702 5697 5693 5689 5684 5680 5675 5670 5665 5660 5655 5650 5645 5639 5633 5627 5621 5614 5608 5601 5594 5587 5580 5573 5568 5567 5558 5549 5542 5535 5529 5523 5517 5513 5509
5722 5718 5715 5711 5707 5703 5699 5694 5690 5686 5681 5676 5672 5667 5662 5656 5651 5646 5641 5635 5629 5623 5616 5610 5603 5596 5590 5582 5575 5568 5560 5552 5545 5542 5537 5527 5519 5511 5505 5500 5495 5490 5487
5711 5708 5704 5700 5696 5692 5687 5683 5678 5673 5668 5663 5658 5653 5648 5642 5637 5631 5625 5619 5613 5606 5599 5592 5585 5578 5571 5563 5555 5547 5539 5531 5522 5516 5512 5505 5497 5489 5483 5479 5474 5471 5467
5701 5697 5693 5689 5684 5680 5675 5670 5665 5660 5655 5650 5644 5639 5633 5627 5621 5615 5609 5603 5596 5589 5582 5574 5566 5558 5550 5542 5534 5526 5517 5509 5501 5493 5488 5483 5476 5469 5463 5459 5456 5453 5449
5690 5686 5682 5677 5673 5668 5663 5658 5652 5647 5642 5636 5630 5624 5618 5612 5605 5599 5593 5587 5580 5572 5564 5556 5547 5539 5530 5521 5512 5504 5495 5487 5479 5472 5467 5462 5456 5450 5444 5440 5438 5435 5433
5679 5675 5670 5665 5660 5655 5650 5645 5639 5633 5628 5622 5615 5609 5603 5596 5589 5582 5576 5569 5562 5554 5546 5537 5528 5519 5509 5500 5490 5481 5473 5465 5458 5451 5446 5442 5437 5431 5426 5423 5420 5418 5417
5667 5663 5658 5653 5648 5642 5637 5631 5625 5619 5614 5607 5601 5594 5587 5580 5573 5566 5558 5551 5544 5535 5526 5517 5508 5498 5488 5479 5471 5462 5453 5444 5437 5431 5427 5423 5418 5413 5409 5407 5403 5401 5400
5655 5650 5645 5640 5635 5629 5623 5617 5611 5605 5599 5593 5586 5579 5572 5564 5556 5548 5540 5533 5525 5516 5506 5496 5487 5478 5468 5458 5451 5444 5436 5427 5419 5412 5408 5405 5400 5396 5393 5390 5388 5386 5386
5642 5638 5632 5627 5621 5615 5610 5604 5597 5591 5585 5577 5570 5563 5555 5547 5538 5530 5521 5514 5506 5497 5487 5476 5466 5458 5449 5439 5431 5425 5418 5411 5402 5396 5392 5388 5384 5381 5377 5375 5373 5371 5371
5630 5625 5619 5613 5608 5602 5596 5589 5583 5576 5569 5562 5555 5546 5538 5530 5520 5511 5502 5494 5487 5479 5469 5458 5447 5437 5428 5419 5411 5405 5399 5393 5387 5382 5377 5373 5370 5366 5363 5361 5359 5358 5357
5617 5612 5606 5600 5594 5588 5581 5575 5567 5561 5554 5547 5539 5531 5521 5511 5502 5492 5481 5472 5464 5457 5449 5439 5429 5418 5409 5401 5393 5386 5381 5376 5372 5368 5364 5360 5357 5354 5351 5349 5347 5345 5344
5604 5598 5592 5586 5579 5573 5566 5559 5551 5544 5537 5529 5521 5513 5503 5492 5482 5472 5462 5452 5442 5434 5428 5419 5410 5400 5392 5384 5376 5370 5365 5360 5357 5354 5351 5348 5345 5342 5340 5338 5336 5334 5332
5590 5584 5578 5572 5565 5557 5550 5543 5535 5527 5519 5511 5502 5494 5486 5475 5463 5452 5442 5433 5422 5413 5406 5398 5390 5382 5374 5368 5361 5356 5351 5347 5344 5341 5338 5336 5333 5331 5329 5327 5325 5323 5321
5576 5570 5563 5557 5550 5542 5534 5526 5518 5509 5500 5491 5482 5473 5465 5456 5445 5434 5424 5414 5405 5395 5387 5380 5372 5365 5358 5352 5347 5342 5338 5334 5331 5329 5327 5325 5322 5320 5318 5316 5314 5313 5311
5562 5555 5548 5541 5534 5526 5518 5509 5500 5491 5479 5470 5461 5451 5442 5436 5426 5414 5404 5395 5386 5378 5370 5364 5357 5350 5344 5339 5334 5329 5325 5322 5319 5317 5315 5313 5311 5309 5308 5306 5304 5303 5302
5547 5540 5532 5525 5517 5509 5501 5493 5483 5472 5461 5449 5438 5428 5419 5411 5402 5394 5384 5375 5366 5358 5351 5346 5340 5335 5329 5325 5321 5317 5313 5310 5308 5306 5304 5302 5301 5299 5298 5296 5294 5293 5292
5530 5523 5516 5508 5499 5491 5481 5472 5465 5457 5444 5431 5419 5408 5397 5389 5381 5372 5364 5356 5349 5341 5335 5329 5325 5320 5316 5312 5308 5305 5302 5300 5297 5295 5294 5292 5290 5289 5288 5286 5285 5284 5283
5514 5506 5498 5490 5481 5471 5461 5451 5441 5433 5426 5417 5404 5390 5379 5370 5361 5353 5345 5338 5333 5326 5319 5315 5310 5306 5302 5299 5296 5293 5291 5289 5287 5285 5283 5281 5280 5279 5278 5277 5275 5274 5274
5497 5489 5480 5471 5461 5451 5441 5431 5420 5410 5401 5393 5385 5374 5361 5352 5344 5336 5327 5321 5316 5311 5306 5301 5297 5293 5290 5287 5284 5281 5280 5278 5276 5274 5273 5271 5270 5269 5268 5267 5266 5265 5264
5479 5470 5460 5451 5442 5432 5421 5410 5400 5389 5380 5371 5362 5353 5343 5335 5328 5321 5313 5306 5301 5296 5292 5288 5284 5281 5277 5275 5272 5270 5268 5267 5265 5264 5262 5261 5260 5259 5258 5257 5256 5256 5255
5461 5452 5441 5431 5421 5410 5400 5389 5379 5368 5359 5350 5342 5333 5323 5316 5311 5305 5298 5293 5287 5283 5279 5275 5272 5269 5266 5263 5261 5259 5258 5256 5255 5254 5252 5251 5250 5249 5249 5248 5247 5246 5246
5441 5432 5422 5411 5400 5390 5379 5368 5358 5348 5339 5330 5323 5316 5307 5300 5294 5288 5283 5279 5274 5270 5266 5263 5260 5257 5254 5252 5250 5249 5248 5246 5245 5244 5243 5242 5241 5240 5239 5238 5237 5237 5236
5421 5411 5401 5390 5379 5368 5358 5348 5338 5328 5319 5311 5304 5297 5291 5285 5279 5274 5270 5266 5262 5258 5255 5252 5249 5247 5244 5242 5240 5239 5238 5236 5235 5234 5233 5232 5231 5230 5229 5228 5228 5227 5226
5400 5390 5379 5369 5358 5348 5338 5329 5319 5310 5301 5293 5286 5280 5275 5270 5266 5261 5257 5254 5250 5247 5244 5241 5239 5236 5234 5232 5230 5229 5228 5226 5225 5224 5223 5222 5221 5220 5219 5218 5218 5217 5216
5380 5369 5358 5348 5338 5328 5319 5310 5301 5293 5285 5277 5271 5266 5261 5256 5253 5249 5245 5242 5239 5237 5234 5231 5229 5227 5224 5222 5221 5219 5218 5216 5215 5214 5213 5212 5211 5210 5209 5208 5207 5207 5206
5359 5349 5338 5328 5319 5310 5301 5293 5285 5277 5270 5263 5258 5253 5248 5244 5241 5237 5234 5231 5229 5226 5224 5222 5219 5217 5215 5213 5211 5210 5208 5206 5205 5203 5202 5201 5200 5199 5198 5197 5197 5196 5195